DW8349 Weather Reports


time (UTC)temp
F
wind
direction
speed
knots
gust
knots
rain 1hr
in
rain 24hr
in
rain mn
in
humidity
%
barometer
mb
20260506110013 74 187 0.0 0.0 0.00 0.00 0.00 100 1009.7
20260506104519 75 187 0.0 0.0 0.00 0.00 0.00 100 1009.6
20260506103032 75 187 0.0 2.6 0.00 0.00 0.00 100 1009.4
20260506101508 75 187 0.0 0.9 0.00 0.00 0.00 100 1009.3
20260506100012 75 187 0.0 3.5 0.00 0.00 0.00 100 1009.3
20260506094518 75 188 0.0 1.7 0.00 0.00 0.00 100 1009.1
20260506093023 75 189 0.0 3.5 0.00 0.00 0.00 100 1009.1
20260506091528 76 191 0.0 3.5 0.00 0.00 0.00 100 1009.0
20260506090009 76 185 0.0 2.6 0.00 0.00 0.00 100 1009.2
20260506084513 76 193 0.0 3.5 0.00 0.00 0.00 100 1009.2
20260506083018 76 169 0.0 5.2 0.00 0.00 0.00 100 1009.3
20260506081530 76 169 0.0 0.9 0.00 0.00 0.00 100 1009.3
20260506073003 76 173 0.0 3.5 0.00 0.00 0.00 100 1009.0
20260506071509 76 174 0.0 3.5 0.00 0.00 0.00 100 1009.2
20260506061503 76 179 0.0 0.9 0.00 0.00 0.00 100 1009.3
20260506044505 77 186 0.0 0.0 0.00 0.00 0.00 100 1009.2
20260506043008 77 276 0.0 0.9 0.00 0.00 0.00 100 1008.7
20260506041515 77 217 0.0 3.5 0.00 0.00 0.00 100 1008.2
20260506040019 78 196 0.0 4.3 0.00 0.00 0.00 100 1008.1
20260506034505 78 167 0.0 0.0 0.00 0.00 0.00 100 1007.9
20260506033007 78 168 0.0 1.7 0.00 0.00 0.00 100 1008.0
20260506031512 78 169 0.0 3.5 0.00 0.00 0.00 100 1007.9
20260506030027 78 176 0.0 0.9 0.00 0.00 0.00 100 1007.9
20260506024536 78 177 0.0 3.5 0.00 0.00 0.00 100 1007.9
20260506023008 79 174 0.0 5.2 0.00 0.00 0.00 100 1007.6
20260506021511 79 174 0.0 6.1 0.00 0.00 0.00 100 1007.5
20260506020018 79 155 0.0 2.6 0.00 0.00 0.00 100 1007.4
20260506014521 79 153 0.0 0.9 0.00 0.00 0.00 100 1007.5
20260506013022 79 153 0.0 0.0 0.00 0.00 0.00 100 1007.2
20260506011510 80 153 0.0 0.0 0.00 0.00 0.00 100 1006.8
20260506010014 80 153 0.0 0.9 0.00 0.00 0.00 100 1006.5
20260506004518 80 153 0.0 0.9 0.00 0.00 0.00 100 1006.2
20260506003022 81 152 0.0 3.5 0.00 0.00 0.00 100 1006.1
20260506001532 81 150 0.0 1.7 0.00 0.00 0.00 3 1006.2
20260506000011 82 201 0.0 3.5 0.00 0.00 0.00 7 1006.3
20260505234527 82 226 0.0 0.0 0.00 0.00 0.00 17 1006.2
20260505233021 83 236 0.0 7.0 0.00 0.00 0.00 22 1006.0
20260505231526 84 160 0.0 6.1 0.00 0.00 0.00 29 1006.1
20260505230045 84 165 0.0 0.9 0.00 0.00 0.00 35 1006.1
20260505224516 84 167 0.0 7.0 0.00 0.00 0.00 41 1006.0
20260505223018 85 148 0.0 5.2 0.00 0.00 0.00 40 1006.0
20260505221522 85 172 0.9 14.8 0.00 0.00 0.00 44 1006.0
20260505220031 85 155 2.6 8.7 0.00 0.00 0.00 48 1006.2
20260505214526 86 271 0.0 9.6 0.00 0.00 0.00 50 1006.4
20260505213022 86 144 2.6 9.6 0.00 0.00 0.00 46 1006.5
20260505211520 85 141 1.7 7.8 0.00 0.00 0.00 42 1006.6
20260505210024 84 164 0.0 12.2 0.00 0.00 0.00 42 1006.6
20260505204527 84 167 2.6 13.0 0.00 0.00 0.00 44 1006.8
20260505203027 85 181 0.0 11.3 0.00 0.00 0.00 44 1006.9
20260505201518 84 165 3.5 14.8 0.00 0.00 0.00 45 1007.1
20260505200004 84 204 0.0 13.9 0.00 0.00 0.00 39 1007.1
20260505194504 84 170 3.5 14.8 0.00 0.00 0.00 35 1007.1
20260505193005 83 167 1.7 15.6 0.00 0.00 0.00 32 1007.2
20260505191508 82 144 3.5 13.0 0.00 0.00 0.00 32 1007.3
20260505190009 82 338 3.5 19.1 0.00 0.00 0.00 29 1007.4
20260505184508 81 203 3.5 12.2 0.00 0.00 0.00 15 1007.7
20260505183011 81 195 1.7 12.2 0.00 0.00 0.00 17 1007.7
20260505181508 81 194 3.5 7.8 0.00 0.00 0.00 12 1007.9
20260505180017 80 191 0.9 13.0 0.00 0.00 0.00 5 1008.1
20260505174508 79 219 0.0 10.4 0.00 0.00 0.00 100 1008.5
20260505173010 79 191 2.6 10.4 0.00 0.00 0.00 100 1008.6
20260505171511 79 181 3.5 13.0 0.00 0.00 0.00 100 1008.6
20260505170010 78 255 1.7 9.6 0.00 0.00 0.00 100 1008.8
20260505164508 78 168 3.5 10.4 0.00 0.00 0.00 100 1008.7
20260505163010 78 262 1.7 9.6 0.00 0.00 0.00 100 1008.7
20260505161511 77 191 0.9 7.0 0.00 0.00 0.00 100 1008.5
20260505153014 75 128 2.6 12.2 0.00 0.00 0.00 100 1008.7
20260505151515 74 167 1.7 9.6 0.00 0.00 0.00 100 1009.0
20260505124516 71 193 0.0 4.3 0.00 0.00 0.00 100 1008.6
20260505123029 71 172 0.9 7.8 0.00 0.00 0.00 100 1008.2
20260505121520 71 171 0.0 7.0 0.00 0.00 0.00 100 1008.2
20260505120024 71 162 0.0 4.3 0.00 0.00 0.00 100 1007.9
20260505114520 71 174 0.0 6.1 0.00 0.00 0.00 100 1007.7
20260505113018 71 165 0.0 7.0 0.00 0.00 0.00 100 1007.8
20260505111522 70 160 0.0 5.2 0.00 0.00 0.00 100 1007.8